Back to catalog

CZ-6A DEB

AlivePO
NORAD 61386·DEBRIS·🇨🇳 China

Launched Aug 6, 2024 from Taiyuan Satellite Launch Center

Loading…

Next Passes (next 24 hours)

TLE

FreshSource: Space-Track

Epoch: Sep 14, 2026, 10:05 UTC

1 61386U 24140XB  26257.42014726  .00004976  00000-0  13301-2 0  9999
2 61386  88.7937 242.3001 0014808 353.8460   6.2562 14.48156413106588

Track CZ-6A DEB in real time with AllMySat

Download on the App Store